Flag for Germany Weather past 2 weeks in Giessen, Hesse, Germany

Now
60 °F

Partly sunny.


Feels Like: 60 °F
Forecast: 46 / 66 °F
Wind: 2 mph from South

Location: Giessen

Current Time: May 22, 2015 at 11:39:56 AM

Latest Report: May 22, 2015 at 11:00 AM


Visibility: 25 mi

Pressure: 30.32 "Hg

Humidity: 45%

Dew point: 38 °F

Location of GiessenLocation

Historic Weather in Giessen — Graph

°F

Giessen temperature yesterday

Maximum temperature yesterday: 62 °F (at 5:00 PM)
Minimum temperature yesterday: 37 °F (at 6:00 AM)
Average temperature yesterday: 50 °F

Past Weeks' High & Low Weather Summary

 TemperatureHumidityPressure
High81 °F (May 12, 3:00 PM)96% (May 13, 5:00 AM)30.36 "Hg (May 13, 5:00 AM)
Low37 °F (May 21, 6:00 AM)31% (May 18, 6:00 PM)29.67 "Hg (May 18, 8:00 PM)
Average55 °F63%30.07 "Hg
* Reported May 7 10:00 AM — May 22 10:00 AM, Giessen, Weather by CustomWeather, © 2015

Note: Actual official high and low records may vary slightly from our data, if they occured in-between our weather recording intervals... More about our weather records

Advertising

Giessen weather history for previous 24 hours

 ConditionsComfort  
Time TempWeatherWind HumidityBarometerVisibility
10:00 AM
Fri, May 22
56 °FSunny.1 mph54%30.33 "Hg19 mi
9:00 AM51 °FSunny.1 mph68%30.34 "Hg16 mi
8:00 AM47 °FOvercast.No wind70%30.35 "Hg19 mi
7:00 AM42 °FScattered clouds.1 mph86%30.36 "Hg17 mi
6:00 AM41 °FPassing clouds.1 mph85%30.35 "Hg19 mi
5:00 AM42 °FPassing clouds.No wind83%30.35 "Hg22 mi
4:00 AM42 °FOvercast.2 mph87%30.36 "Hg19 mi
3:00 AM43 °FOvercast.1 mph78%30.36 "Hg28 mi
2:00 AM44 °FPassing clouds.1 mph74%30.36 "Hg28 mi
1:00 AM45 °FClear.1 mph71%30.35 "Hg37 mi
12:00 AM47 °FClear.1 mph68%30.35 "Hg34 mi
11:00 PM
Thu, May 21
50 °FPassing clouds.1 mph63%30.34 "Hg34 mi
10:00 PM53 °FPassing clouds.1 mph52%30.32 "Hg40 mi
9:00 PM57 °FPartly sunny.1 mph40%30.29 "Hg43 mi
8:00 PM58 °FScattered clouds.3 mph38%30.27 "Hg43 mi
7:00 PM59 °FScattered clouds.3 mph38%30.27 "Hg43 mi
6:00 PM59 °FPartly sunny.3 mph37%30.26 "Hg43 mi
5:00 PM62 °FOvercast.7 mph34%30.25 "Hg22 mi
4:00 PM61 °FPartly sunny.3 mph38%30.25 "Hg34 mi
3:00 PM60 °FOvercast.3 mph40%30.26 "Hg34 mi
2:00 PM58 °FOvercast.6 mph46%30.26 "Hg25 mi
1:00 PM55 °FPartly sunny.6 mph47%30.27 "Hg34 mi
12:00 PM56 °FScattered clouds.5 mph47%30.27 "Hg34 mi
Weather by CustomWeather, © 2015

See weather overviewHow to use our weather pages